• In United Kingdom
  • List of Countries
  • For 7 days
  • Water Temperature
  • Satellite Maps
  • Weather Map
  • Weather Widgets
  • user-avatar
    Login

    Hourly Weather Fresnillo

    Today, 16 July, Monday

    Time Temperature Precipitation Wind Pressure Humidity
    00:00 +18°C° 0 mm 3 mps 588 mmHg 56%
    01:00 +17°C° 0 mm 3 mps 587 mmHg 60%
    02:00 +16°C° 0 mm 2 mps 587 mmHg 63%
    03:00 +16°C° 0 mm 2 mps 587 mmHg 66%
    04:00 +15°C° 0 mm 2 mps 587 mmHg 68%
    05:00 +15°C° 0 mm 2 mps 587 mmHg 70%
    06:00 +17°C° 0 mm 2 mps 588 mmHg 64%
    07:00 +18°C° 0 mm 2 mps 588 mmHg 59%
    08:00 +20°C° 0 mm 2 mps 589 mmHg 53%
    09:00 +21°C° 0 mm 2 mps 590 mmHg 46%
    10:00 +24°C° 0 mm 2 mps 590 mmHg 40%
    11:00 +26°C° 0 mm 2 mps 590 mmHg 33%
    12:00 +26°C° 0 mm 2 mps 590 mmHg 30%
    13:00 +27°C° 0 mm 2 mps 590 mmHg 27%
    14:00 +28°C° 0 mm 3 mps 590 mmHg 24%
    15:00 +28°C° 0.1 mm 3 mps 589 mmHg 25%
    16:00 +27°C° 0.1 mm 4 mps 589 mmHg 26%
    17:00 +27°C° 0.1 mm 4 mps 588 mmHg 27%
    18:00 +26°C° 0.1 mm 4 mps 588 mmHg 33%
    19:00 +23°C° 0.1 mm 5 mps 588 mmHg 39%
    20:00 +21°C° 0.1 mm 5 mps 588 mmHg 46%
    21:00 +21°C° 0 mm 5 mps 588 mmHg 49%
    22:00 +20°C° 0 mm 5 mps 589 mmHg 52%
    23:00 +19°C° 0 mm 5 mps 589 mmHg 56%

    Tomorrow, 17 July, Tuesday

    Time Temperature Precipitation Wind Pressure Humidity
    00:00 +18°C° 0.3 mm 4 mps 588 mmHg 59%
    01:00 +17°C° 0.3 mm 4 mps 588 mmHg 63%
    02:00 +17°C° 0.3 mm 3 mps 588 mmHg 67%
    03:00 +16°C° 0.1 mm 3 mps 588 mmHg 69%
    04:00 +16°C° 0.1 mm 3 mps 588 mmHg 71%
    05:00 +16°C° 0.1 mm 3 mps 587 mmHg 73%
    06:00 +17°C° 0.1 mm 3 mps 588 mmHg 70%
    07:00 +18°C° 0.1 mm 3 mps 589 mmHg 66%
    08:00 +19°C° 0.1 mm 2 mps 589 mmHg 63%
    09:00 +20°C° 0.1 mm 2 mps 590 mmHg 55%
    10:00 +23°C° 0.1 mm 2 mps 590 mmHg 48%
    11:00 +25°C° 0.1 mm 2 mps 591 mmHg 41%
    12:00 +25°C° 0 mm 2 mps 591 mmHg 37%
    13:00 +26°C° 0 mm 2 mps 590 mmHg 33%
    14:00 +27°C° 0 mm 3 mps 590 mmHg 29%
    15:00 +27°C° 0 mm 3 mps 590 mmHg 31%
    16:00 +27°C° 0 mm 3 mps 589 mmHg 32%
    17:00 +26°C° 0 mm 3 mps 589 mmHg 34%
    18:00 +25°C° 0.4 mm 4 mps 589 mmHg 42%
    19:00 +22°C° 0.4 mm 4 mps 588 mmHg 50%
    20:00 +20°C° 0.4 mm 4 mps 588 mmHg 59%
    21:00 +19°C° 1.5 mm 5 mps 588 mmHg 63%
    22:00 +19°C° 1.5 mm 5 mps 589 mmHg 67%
    23:00 +17°C° 1.5 mm 5 mps 589 mmHg 71%

    Day after tomorrow, 18 July, Wednesday

    Time Temperature Precipitation Wind Pressure Humidity
    00:00 +17°C° 0.1 mm 4 mps 589 mmHg 72%
    01:00 +17°C° 0.1 mm 3 mps 588 mmHg 72%
    02:00 +17°C° 0.1 mm 2 mps 588 mmHg 72%
    03:00 +17°C° 0 mm 2 mps 588 mmHg 74%
    04:00 +16°C° 0 mm 2 mps 588 mmHg 76%
    05:00 +16°C° 0 mm 2 mps 588 mmHg 78%
    06:00 +17°C° 0 mm 2 mps 588 mmHg 74%
    07:00 +18°C° 0 mm 2 mps 589 mmHg 70%
    08:00 +18°C° 0 mm 2 mps 589 mmHg 66%
    09:00 +20°C° 0 mm 2 mps 590 mmHg 58%
    10:00 +23°C° 0 mm 1 mps 590 mmHg 50%
    11:00 +24°C° 0 mm 1 mps 590 mmHg 42%
    12:00 +25°C° 0 mm 1 mps 590 mmHg 39%
    13:00 +26°C° 0 mm 1 mps 590 mmHg 35%
    14:00 +27°C° 0 mm 1 mps 590 mmHg 31%
    15:00 +27°C° 0 mm 1 mps 589 mmHg 31%
    16:00 +27°C° 0 mm 1 mps 589 mmHg 31%
    17:00 +27°C° 0 mm 2 mps 589 mmHg 31%
    18:00 +26°C° 0 mm 2 mps 589 mmHg 34%
    19:00 +25°C° 0 mm 2 mps 588 mmHg 38%
    20:00 +24°C° 0 mm 3 mps 588 mmHg 42%
    21:00 +22°C° 0 mm 3 mps 588 mmHg 48%
    22:00 +20°C° 0 mm 4 mps 588 mmHg 54%
    23:00 +19°C° 0 mm 5 mps 588 mmHg 60%

    19 July, Thursday

    Time Temperature Precipitation Wind Pressure Humidity
    00:00 +19°C° 0 mm 4 mps 588 mmHg 63%
    01:00 +18°C° 0 mm 4 mps 587 mmHg 66%
    02:00 +17°C° 0 mm 4 mps 587 mmHg 68%
    03:00 +17°C° 0 mm 3 mps 587 mmHg 71%
    04:00 +16°C° 0 mm 2 mps 586 mmHg 73%
    05:00 +16°C° 0 mm 1 mps 586 mmHg 75%
    06:00 +18°C° 0 mm 1 mps 587 mmHg 68%
    07:00 +20°C° 0 mm 1 mps 588 mmHg 61%
    08:00 +21°C° 0 mm 1 mps 589 mmHg 54%
    09:00 +23°C° 0 mm 1 mps 589 mmHg 45%
    10:00 +25°C° 0 mm 2 mps 590 mmHg 35%
    11:00 +27°C° 0 mm 2 mps 590 mmHg 26%
    12:00 +27°C° 0 mm 3 mps 590 mmHg 24%
    13:00 +28°C° 0 mm 3 mps 589 mmHg 22%
    14:00 +29°C° 0 mm 4 mps 589 mmHg 20%
    15:00 +29°C° 0 mm 4 mps 589 mmHg 20%
    16:00 +29°C° 0 mm 4 mps 589 mmHg 20%
    17:00 +28°C° 0 mm 4 mps 588 mmHg 20%
    18:00 +27°C° 0 mm 4 mps 588 mmHg 23%
    19:00 +26°C° 0 mm 4 mps 588 mmHg 26%
    20:00 +23°C° 0 mm 4 mps 588 mmHg 29%
    21:00 +22°C° 0 mm 4 mps 588 mmHg 36%
    22:00 +21°C° 0 mm 4 mps 588 mmHg 43%
    23:00 +20°C° 0 mm 5 mps 587 mmHg 50%

    20 July, Friday

    Time Temperature Precipitation Wind Pressure Humidity
    00:00 +19°C° 0 mm 4 mps 587 mmHg 52%
    01:00 +18°C° 0 mm 4 mps 587 mmHg 54%
    02:00 +18°C° 0 mm 3 mps 587 mmHg 57%
    03:00 +17°C° 0 mm 3 mps 587 mmHg 59%
    04:00 +17°C° 0 mm 2 mps 587 mmHg 61%
    05:00 +16°C° 0 mm 2 mps 587 mmHg 64%
    06:00 +18°C° 0 mm 2 mps 587 mmHg 59%
    07:00 +20°C° 0 mm 2 mps 588 mmHg 55%
    08:00 +21°C° 0 mm 2 mps 589 mmHg 50%
    09:00 +24°C° 0 mm 2 mps 590 mmHg 44%
    10:00 +25°C° 0 mm 1 mps 590 mmHg 37%
    11:00 +27°C° 0 mm 1 mps 591 mmHg 30%
    12:00 +28°C° 0 mm 1 mps 591 mmHg 27%
    13:00 +29°C° 0 mm 2 mps 591 mmHg 24%
    14:00 +30°C° 0 mm 3 mps 590 mmHg 21%
    15:00 +29°C° 0 mm 3 mps 590 mmHg 21%
    16:00 +29°C° 0 mm 3 mps 590 mmHg 20%
    17:00 +29°C° 0 mm 3 mps 589 mmHg 20%
    18:00 +28°C° 0 mm 3 mps 589 mmHg 24%
    19:00 +26°C° 0 mm 3 mps 589 mmHg 27%
    20:00 +24°C° 0 mm 3 mps 589 mmHg 31%
    21:00 +22°C° 0 mm 4 mps 588 mmHg 40%
    22:00 +21°C° 0 mm 4 mps 588 mmHg 49%
    23:00 +20°C° 0 mm 5 mps 588 mmHg 58%

    21 July, Saturday

    Time Temperature Precipitation Wind Pressure Humidity
    00:00 +19°C° 0 mm 4 mps 588 mmHg 61%
    01:00 +19°C° 0 mm 3 mps 588 mmHg 64%
    02:00 +18°C° 0 mm 2 mps 587 mmHg 67%
    03:00 +17°C° 0 mm 2 mps 587 mmHg 69%
    04:00 +17°C° 0 mm 2 mps 587 mmHg 71%
    05:00 +16°C° 0 mm 2 mps 587 mmHg 73%
    06:00 +18°C° 0 mm 2 mps 588 mmHg 65%
    07:00 +20°C° 0 mm 2 mps 589 mmHg 58%
    08:00 +21°C° 0 mm 2 mps 590 mmHg 50%
    09:00 +24°C° 0 mm 3 mps 590 mmHg 42%
    10:00 +26°C° 0 mm 3 mps 591 mmHg 35%
    11:00 +27°C° 0 mm 4 mps 591 mmHg 27%
    12:00 +28°C° 0 mm 4 mps 591 mmHg 25%
    13:00 +29°C° 0 mm 5 mps 591 mmHg 23%
    14:00 +30°C° 0 mm 5 mps 591 mmHg 22%
    15:00 +30°C° 0 mm 5 mps 590 mmHg 21%
    16:00 +29°C° 0 mm 5 mps 590 mmHg 21%
    17:00 +29°C° 0 mm 5 mps 590 mmHg 21%
    18:00 +27°C° 0 mm 6 mps 590 mmHg 25%
    19:00 +26°C° 0 mm 6 mps 590 mmHg 29%
    20:00 +23°C° 0 mm 7 mps 589 mmHg 32%
    21:00 +22°C° 0 mm 6 mps 589 mmHg 39%
    22:00 +20°C° 0 mm 6 mps 589 mmHg 45%
    23:00 +19°C° 0 mm 5 mps 589 mmHg 52%
    Show more